Weather History for Lake Charles, LA

Change the Weather History Date:

Friday, December 20, 2013

  Actual Average Record
Temperature  
Mean Temperature 70 °F -  
Max Temperature 75 °F 60 °F 77 °F (1998)
Min Temperature 66 °F 43 °F 24 °F (2000)
Cooling Degree Days 6    
Growing Degree Days 20 (Base 50)    
Moisture  
Dew Point 66 °F    
Average Humidity 90    
Maximum Humidity 100    
Minimum Humidity 73    
Precipitation  
Precipitation 0.00 in - - ()
Sea Level Pressure  
Sea Level Pressure 29.93 in    
Wind  
Wind Speed 12 mph (SSE)    
Max Wind Speed 23 mph    
Max Gust Speed 31 mph    
Visibility 8 miles    
Events      
Averages and records for this station are not official NWS values.
T = Trace of Precipitation, MM = Missing Value Source: NWS Daily Summary

Daily Weather History Graph

Daily Weather History Graph

Search for Another Location

Airport:

Trip Planner

Search our weather history database for the weather conditions in past years. The results will help you decide how hot, cold, wet, or windy it might be!

Date:

Astronomy

Dec. 20, 2013 Rise Set
Actual Time 7:04 AM CST 5:16 PM CST
Civil Twilight 6:37 AM CST 5:42 PM CST
Nautical Twilight 6:07 AM CST 6:12 PM CST
Astronomical Twilight 5:38 AM CST 6:42 PM CST
Moon 8:25 PM CST (12/20) 9:09 AM CST (12/20)
Length of Visible Light 11h 04m
Length of Day
10h 11m
Waning Gibbous, 90% of the Moon is Illuminated
Dec 20
Waning Gibbous
Dec 25
Last Quarter
Jan 1
New
Jan 7
First Quarter
Jan 15
Full

Hourly Weather History & Observations

Time (CST) Temp. Dew Point Humidity Pressure Visibility Wind Dir Wind Speed Gust Speed Precip Events Conditions
12:15 AM 66.9 °F 64.2 °F 91% 29.96 in 7.0 mi SSE 10.4 mph - N/A   Mostly Cloudy
12:35 AM 67.1 °F 64.2 °F 90% 29.96 in 7.0 mi SSE 10.4 mph 17.3 mph N/A   Scattered Clouds
12:55 AM 67.1 °F 64.2 °F 90% 29.96 in 7.0 mi SSE 12.7 mph 17.3 mph N/A   Scattered Clouds
1:15 AM 67.1 °F 64.4 °F 91% 29.96 in 7.0 mi South 10.4 mph - N/A   Mostly Cloudy
1:35 AM 67.1 °F 64.2 °F 90% 29.96 in 7.0 mi South 12.7 mph - N/A   Mostly Cloudy
1:55 AM 67.1 °F 64.2 °F 90% 29.96 in 7.0 mi South 12.7 mph - N/A   Mostly Cloudy
2:15 AM 67.1 °F 64.4 °F 91% 29.95 in 7.0 mi South 11.5 mph - N/A   Mostly Cloudy
2:35 AM 67.1 °F 64.2 °F 90% 29.95 in 7.0 mi South 13.8 mph - N/A   Mostly Cloudy
2:55 AM 66.9 °F 64.0 °F 90% 29.95 in 7.0 mi South 15.0 mph - N/A   Scattered Clouds
3:15 AM 66.9 °F 64.4 °F 92% 29.95 in 7.0 mi South 13.8 mph 19.6 mph N/A   Scattered Clouds
3:35 AM 67.1 °F 64.4 °F 91% 29.95 in 7.0 mi South 8.1 mph - N/A   Mostly Cloudy
3:55 AM 66.9 °F 64.8 °F 93% 29.95 in 7.0 mi SSE 10.4 mph - N/A   Mostly Cloudy
4:15 AM 67.1 °F 64.8 °F 92% 29.95 in 7.0 mi South 8.1 mph - N/A   Mostly Cloudy
4:35 AM 66.9 °F 64.6 °F 92% 29.94 in 7.0 mi SSE 8.1 mph - N/A   Mostly Cloudy
4:55 AM 66.6 °F 66.6 °F 100% 29.94 in 7.0 mi SSE 6.9 mph - N/A   Mostly Cloudy
5:15 AM 66.6 °F 66.6 °F 100% 29.95 in 5.0 mi SSE 8.1 mph - N/A   Overcast
5:35 AM 66.2 °F 66.2 °F 100% 29.95 in 5.0 mi SSE 9.2 mph - N/A   Mostly Cloudy
5:55 AM 66.2 °F 66.2 °F 100% 29.95 in 5.0 mi SSE 8.1 mph - N/A   Scattered Clouds
6:00 AM 66.2 °F 66.2 °F 100% 29.95 in 7.0 mi SSE 8.1 mph - N/A   Scattered Clouds
6:50 AM 66.2 °F 66.2 °F 100% 29.97 in 6.0 mi SSE 6.9 mph - N/A   Mostly Cloudy
7:58 AM 66.2 °F 66.2 °F 100% 29.98 in 6.0 mi SSE 6.9 mph - N/A   Mostly Cloudy
8:50 AM 71.6 °F 66.2 °F 83% 29.99 in 7.0 mi SSE 11.5 mph 17.3 mph N/A   Overcast
9:50 AM 73.4 °F 68.0 °F 83% 30.00 in 7.0 mi South 18.4 mph 25.3 mph N/A   Overcast
10:50 AM 75.2 °F 68.0 °F 78% 29.99 in 10.0 mi South 18.4 mph 25.3 mph N/A   Mostly Cloudy
11:50 AM 75.2 °F 68.0 °F 78% 29.96 in 10.0 mi South 20.7 mph 29.9 mph N/A   Mostly Cloudy
12:50 PM 75.2 °F 66.2 °F 73% 29.93 in 10.0 mi South 23.0 mph 31.1 mph N/A   Overcast
2:50 PM 75.2 °F 68.0 °F 78% 29.90 in 10.0 mi South 20.7 mph 29.9 mph N/A   Mostly Cloudy
3:55 PM 73.4 °F 68.0 °F 83% 29.89 in 10.0 mi South 16.1 mph 25.3 mph N/A   Mostly Cloudy
4:50 PM 71.6 °F 68.0 °F 88% 29.90 in 10.0 mi SSE 16.1 mph 19.6 mph N/A   Overcast
5:50 PM 71.6 °F 68.0 °F 88% 29.90 in 10.0 mi SSE 12.7 mph - N/A   Overcast
6:50 PM 71.6 °F 68.0 °F 88% 29.90 in 10.0 mi SSE 15.0 mph 19.6 mph N/A   Overcast
7:50 PM 71.6 °F 68.0 °F 88% 29.90 in 10.0 mi SSE 17.3 mph 23.0 mph N/A   Overcast
8:50 PM 71.6 °F 68.0 °F 88% 29.89 in 7.0 mi SSE 17.3 mph 23.0 mph N/A   Overcast
9:50 PM 71.6 °F 68.0 °F 88% 29.89 in 10.0 mi SSE 13.8 mph 19.6 mph N/A   Overcast
10:15 PM 70.9 °F 67.6 °F 89% 29.88 in 10.0 mi SSE 17.3 mph 20.7 mph N/A   Overcast
10:35 PM 71.1 °F 67.8 °F 89% 29.89 in 7.0 mi SSE 17.3 mph - N/A   Overcast
10:55 PM 70.7 °F 68.9 °F 94% 29.88 in 5.0 mi SE 13.8 mph 19.6 mph N/A   Overcast
11:15 PM 70.7 °F 69.8 °F 97% 29.88 in 7.0 mi SE 17.3 mph 20.7 mph N/A   Overcast
11:35 PM 71.1 °F 68.9 °F 93% 29.87 in 7.0 mi SSE 12.7 mph - N/A   Overcast
11:55 PM 70.9 °F 68.9 °F 93% 29.87 in 5.0 mi SSE 13.8 mph 24.2 mph N/A   Overcast